Regional Weather Roundup
Issued by NWS Newport/Morehead, NC

Current Version | Previous Version | Graphics & Text | Print | Product List | Glossary Off
Versions: 1 2 3 4 5 6 7 8 9 10 11 12 13 14 15 16 17 18 19 20 21 22 23 24 25 26 27 28 29 30 31 32 33 34 35 36 37 38 39 40 41 42 43 44 45 46 47 48 49 50

000
ASUS42 KMHX 220014
RWRMHX
WEATHER ROUNDUP FOR EASTERN NORTH CAROLINA
NATIONAL WEATHER SERVICE NEWPORT/MOREHEAD CITY NC
800 PM EDT MON AUG 21 2017

NOTE: "FAIR" INDICATES FEW OR NO CLOUDS BELOW 12,000 FEET
WITH NO SIGNIFICANT WEATHER AND/OR OBSTRUCTIONS TO VISIBILITY

NCZ015>017-031-032-045>047-102-103-220100-
NORTH COAST

CITY           SKY/WX    TMP DP  RH WIND       PRES   REMARKS
EDENTON        CLEAR     84  74  70 CALM      30.16R
ELIZABETH CITY CLEAR     82  77  84 SE5       30.16R
KITTY HAWK     CLEAR     80  76  87 CALM      30.15S
MANTEO         PTCLDY    81  76  84 SE5       30.16S

$$

NCZ045>047-081-094-103-104-220100-
CENTRAL COAST

CITY           SKY/WX    TMP DP  RH WIND       PRES   REMARKS
FRISCO         CLEAR     82  77  84 S3        30.17S

$$

NCZ095-097-098-100-101-220100-
SOUTHERN COAST

CITY           SKY/WX    TMP DP  RH WIND       PRES   REMARKS
BEAUFORT       CLEAR     80  77  90 S3        30.16R
CEDAR ISLAND   NOT AVBL
JACKSONVILLE   CLEAR     81  77  88 S3        30.15S
PINEY ISLAND   CLEAR    N/A N/A N/A S5        30.16S
WILMINGTON     PTCLDY    82  77  84 SE3       30.16R


$$

NCZ011>013-027>030-043-044-078>080-089-090>093-098-220100-
COASTAL PLAIN

CITY           SKY/WX    TMP DP  RH WIND       PRES   REMARKS
AHOSKIE          N/A     79  75  87 CALM      30.15R
CLINTON        CLEAR     84  76  77 CALM      30.15R
ELIZABETHTOWN  NOT AVBL
GOLDSBORO      CLEAR     84  78  82 SE5       30.14R
GREENVILLE     CLEAR     84  72  65 SE3       30.16S
HAVELOCK       CLEAR     81  73  76 S5        30.17R
KENANSVILLE    CLEAR     81  73  78 CALM      30.16R
KINSTON        NOT AVBL
NEW BERN       CLEAR     81  76  84 S6        30.17R
RICHLANDS      CLEAR     80  75  84 S5        30.16S
ROCKY MOUNT    CLEAR     79  76  90 CALM      30.15R
WASHINGTON     CLEAR     81  75  81 SE3       30.16R
WHITEVILLE     CLEAR     83  75  77 CALM      30.15R

$$

AMZ130-135-150-152-154-156-158-170-250-252-270-ANZ085-086-088-633-658-670-220100-
MARINE OBSERVATIONS

STATION/POSITION TIME  TEMP    WIND        PRES    WAVE   SWELL
                       AIR SEA DIR/SP/G            HT/PER HT/PER
                 (UTC) (F)     (DEG/KT/KT) (MB)    (FT/S) (FT/S)
CHESAPEAKE LIGHT NOT AVBL
64 E VA BEACH    2350   79 81  130/  8/ 10 1021.7    2/ 8   2/ 8
DUCK             2336   81 76  140/ 10/ 11 1020.8
2 E DUCK         2330      82                N/A     2/ 9
OREGON INLET     2336   81 85  130/  4/  6 1021.4
13E OREGON INLT  2348      81                N/A     2/ 8   2/ 8
HATTERAS CG      2336   82 81  170/  3/  4 1021.5
DIAMOND BUOY     2350   83 84  120/  2/  2 1021.3    3/ 8   2/ 8
CAPE LOOKOUT     0000   81     120/  4/  5 1021.1
BEAUFORT LAB     2336   82 81  170/  4/  5 1020.8
30 SE NEW RVR IN 2308   82 84  200/  6/  8 1020.8
30 SE NEW RVR IN 2343      84                N/A     3/10   2/11
27 SE WRIGHTSVLE 2308   83 84  160/  8/ 10 1020.6
5 SE WRIGHTSVLE  2308   82 83  160/ 10/ 14 1020.6
225 S CAPE HAT   2350   83 85  110/  4/  6 1021.4    3/ 9   3/ 9
41 SE CHARLESTON 0000   81 85  160/  4/  6 1019.8

$$



USA.gov is the U.S. government's official web portal to all federal, state and local government web resources and services.